This is the latest recevied weather packets stored in our database for station/object DL1MMS-10. If no packets are shown the sender has not sent any weather packets the latest 10 day(s).
| Time | Temp. | Humidity | Pressure | Rain* | Wind** | Luminosity | Snow |
|---|---|---|---|---|---|---|---|
| 1777990682 | 26.11° C | 42% | 1008.5 hPa | 0 mm | - | - | - |
| 1777990381 | 25° C | 43% | 1008.6 hPa | 0 mm | - | - | - |
| 1777989781 | 25° C | 42% | 1008.6 hPa | 0 mm | - | - | - |
| 1777989480 | 25.56° C | 42% | 1008.6 hPa | 0 mm | - | - | - |
| 1777989180 | 25.56° C | 42% | 1008.6 hPa | 0 mm | - | - | - |
| 1777988880 | 25° C | 42% | 1008.6 hPa | 0 mm | - | - | - |
| 1777988580 | 25° C | 43% | 1008.6 hPa | 0 mm | - | - | - |
| 1777988279 | 24.44° C | 44% | 1008.8 hPa | 0 mm | - | - | - |
| 1777987979 | 23.89° C | 46% | 1008.7 hPa | 0 mm | - | - | - |
| 1777987679 | 22.78° C | 47% | 1008.8 hPa | 0 mm | - | - | - |
| 1777987378 | 22.22° C | 49% | 1008.8 hPa | 0 mm | - | - | - |
| 1777987078 | 21.11° C | 51% | 1008.9 hPa | 0 mm | - | - | - |
| 1777986778 | 20.56° C | 52% | 1008.9 hPa | 0 mm | - | - | - |
| 1777986478 | 20° C | 52% | 1008.8 hPa | 0 mm | - | - | - |
| 1777986177 | 20° C | 52% | 1008.7 hPa | 0 mm | - | - | - |
| 1777985877 | 20° C | 52% | 1008.8 hPa | 0 mm | - | - | - |
| 1777985577 | 19.44° C | 53% | 1008.9 hPa | 0 mm | - | - | - |
| 1777985276 | 19.44° C | 53% | 1008.8 hPa | 0 mm | - | - | - |
| 1777984976 | 19.44° C | 53% | 1008.9 hPa | 0 mm | - | - | - |
| 1777984676 | 19.44° C | 53% | 1008.9 hPa | 0 mm | - | - | - |
| 1777984376 | 20° C | 54% | 1009 hPa | 0 mm | - | - | - |
| 1777984075 | 20° C | 55% | 1009 hPa | 0 mm | - | - | - |
| 1777983775 | 19.44° C | 56% | 1008.7 hPa | 0 mm | - | - | - |
| 1777983475 | 19.44° C | 56% | 1008.8 hPa | 0 mm | - | - | - |
| 1777983174 | 19.44° C | 55% | 1008.8 hPa | 0 mm | - | - | - |
* Rain latest hour (hover to see other rain measurements)
** Current wind speed in m/s (hover to see current wind gust speed)